Tracking 18850 objects as of 22-Nov-2017
HD Live streaming from Space Station
objects crossing your sky now

COSMOS 588

Track COSMOS 588 now!
10-day predictions
COSMOS 588 is classified as:


NORAD ID: 6845
Int'l Code: 1973-069A
Perigee: 1,455.2 km
Apogee: 1,499.9 km
Inclination: 74.0 °
Period: 115.3 minutes
Semi major axis: 7848 km
RCS: 0.707 m2 (medium)
Launch date: October 2, 1973
Source: Commonwealth of Independent States (former USSR) (CIS)
Launch site: PLESETSK MISSILE AND SPACE COMPLEX (PKMTR)
aabbcc
Your satellite tracking list
Your tracking list is empty




NASA's NSSDC Master Catalog

Two Line Element Set (TLE):
1  6845U 73069A   17326.58347330 -.00000010 +00000-0 +41304-4 0  9998
2  6845 073.9992 185.6253 0028458 155.8208 230.8558 12.48590427011892
Source of the keplerian elements: AFSPC